Theta_e
329 329 329 330 330 329 329 329 329 328 329 329 328 327 326 325 325 325 325 325 325 325 325 325 325 325 325 325 325 324 324 324 322 319 319 319 317 316 317 318 318 322 323 322 322 322 322 322 321 321 320 320 321 322 321 322 322 323 323 324 324 324 325 326 326 327 329 330 331 331 330 330 330 331 332 333 334 334 333 333 334 334 334 334 334
332 330 329 330 330 330 329 329 329 330 330 330 329 329 328 327 326 325 325 325 324 325 325 325 326 326 326 326 326 325 325 324 323 321 319 319 317 317 317 317 319 321 322 321 321 322 322 322 321 321 320 320 320 321 320 321 321 322 322 323 323 323 323 325 326 326 328 329 330 332 332 330 330 330 330 332 332 333 334 333 333 333 334 335 334
337 333 331 330 331 330 330 330 330 330 330 330 330 330 330 329 327 326 325 325 325 325 325 326 327 327 326 326 326 326 326 325 325 323 320 319 318 318 317 317 319 321 321 321 321 321 322 321 321 321 320 320 320 320 320 320 321 321 322 322 322 322 322 324 326 326 327 328 330 333 333 333 334 330 328 330 331 332 333 333 333 333 334 334 334
337 336 333 330 331 331 331 331 331 331 331 331 331 330 330 330 329 326 326 326 326 326 326 326 326 327 327 327 326 326 326 326 325 324 322 319 318 318 317 317 318 320 320 321 321 321 321 321 321 321 320 319 319 319 319 319 320 320 321 322 322 322 321 322 325 325 325 327 330 331 331 332 335 331 327 329 330 330 332 332 332 333 333 333 334
338 339 336 331 331 331 331 331 331 331 331 331 331 331 331 331 330 328 327 327 327 326 326 325 326 327 327 327 326 327 327 325 325 325 323 320 319 319 317 316 317 319 320 320 321 321 321 321 321 320 320 319 319 319 318 318 319 320 321 321 321 322 321 321 323 323 323 325 327 330 330 331 332 329 329 330 329 329 331 330 331 331 331 332 332
337 338 335 331 331 331 331 331 331 331 331 331 332 331 331 331 331 330 329 328 327 326 326 326 326 327 327 327 327 327 327 326 325 325 323 321 321 320 318 316 317 319 319 319 320 320 321 321 320 320 319 319 318 318 318 318 318 319 320 320 320 320 320 320 320 321 321 322 323 325 328 329 330 328 329 330 328 328 329 329 330 329 329 330 331
337 336 334 332 331 331 331 332 332 332 332 332 332 332 332 332 331 331 329 328 327 327 327 327 327 327 327 327 327 328 328 327 326 325 324 322 322 321 319 317 317 318 318 318 318 318 320 321 320 320 319 319 318 318 318 317 318 318 318 319 319 319 319 319 319 319 320 320 320 321 322 325 328 329 329 329 329 328 327 327 327 327 328 329 330
339 339 337 332 331 332 332 333 333 333 334 333 333 333 332 333 332 331 330 329 328 328 328 328 328 328 327 327 328 328 329 328 327 326 325 324 322 322 321 318 317 318 318 318 318 319 319 320 320 320 319 319 318 318 318 317 317 317 317 318 318 318 318 317 318 318 318 318 318 319 319 321 324 326 325 326 329 330 328 326 326 325 325 327 328
339 342 338 332 331 332 333 334 334 334 334 333 333 333 333 333 332 331 330 329 328 329 329 328 327 327 327 328 328 329 329 329 328 327 326 325 323 323 323 320 318 318 318 317 318 319 318 318 320 320 319 318 318 318 317 317 316 316 316 317 317 317 317 317 317 317 317 317 317 318 318 318 319 321 321 322 327 329 328 327 326 325 325 325 325
338 339 334 331 332 333 333 334 333 334 334 334 334 333 333 333 332 331 330 329 329 329 329 329 327 327 328 328 328 329 329 330 328 327 326 326 325 324 324 322 319 317 317 316 317 319 317 317 319 319 319 318 317 317 317 316 316 316 316 315 315 316 316 316 317 317 316 316 316 317 317 318 318 319 319 320 324 327 327 326 325 324 325 325 324
338 337 332 331 333 334 333 333 333 334 334 334 334 333 333 333 332 331 331 330 330 329 329 330 328 328 328 329 329 329 330 330 329 327 327 326 325 325 324 323 321 318 316 316 317 318 317 317 319 319 319 318 318 317 317 316 315 316 316 315 315 317 317 317 317 317 317 316 316 316 317 317 317 318 319 320 322 324 325 325 323 322 324 324 323
337 337 335 332 332 333 334 333 334 334 334 334 334 333 333 332 332 332 331 331 330 330 330 331 330 329 329 329 330 330 330 330 330 328 327 327 326 326 325 323 322 318 316 316 317 317 317 317 318 319 319 318 318 317 317 316 315 315 316 315 315 316 317 317 317 318 317 316 316 316 317 317 317 317 318 319 320 320 321 322 321 322 323 323 322
335 337 338 335 331 332 333 333 333 333 333 333 333 333 332 332 333 332 332 332 332 331 331 331 331 330 329 330 330 331 331 331 331 330 328 327 327 326 325 323 322 319 316 316 317 317 317 316 317 318 318 318 317 316 317 317 315 315 316 316 315 316 316 316 317 318 317 317 316 316 317 317 317 317 317 318 318 317 319 320 320 321 322 321 321
334 335 338 336 330 330 332 332 332 332 332 332 332 332 332 332 332 332 332 332 332 332 332 332 331 331 331 331 331 331 332 332 331 331 330 328 327 326 325 324 323 321 318 317 317 317 317 316 315 316 317 316 317 316 317 317 316 316 316 316 315 315 316 315 315 317 317 317 316 315 316 316 316 316 317 317 317 317 317 319 319 320 320 320 321
333 333 336 333 328 328 330 330 331 331 331 331 331 331 332 331 331 332 332 332 333 333 333 333 333 332 332 332 333 332 332 333 332 331 331 330 328 326 326 325 324 323 321 318 317 316 317 317 315 315 316 316 316 317 317 317 317 317 317 317 316 315 316 315 315 316 316 317 316 316 315 315 315 316 316 317 317 316 316 318 319 320 321 321 321
331 333 335 331 327 328 329 329 330 331 331 331 331 331 331 331 331 332 332 332 333 332 333 333 333 334 333 333 333 333 333 333 332 331 331 330 329 327 326 325 324 324 322 320 318 316 317 317 315 316 316 316 317 317 317 318 317 317 317 317 316 316 316 316 315 315 316 317 317 317 316 315 315 316 316 318 317 316 316 317 318 319 321 322 323
329 331 334 331 327 328 329 330 330 330 330 330 331 331 330 330 330 331 331 331 331 331 331 332 333 332 333 333 333 333 333 333 332 331 330 330 330 329 327 326 325 324 323 322 320 317 317 317 316 315 316 316 317 317 317 317 317 317 316 316 316 316 316 317 316 315 316 316 317 317 317 315 315 316 316 317 318 317 317 317 317 317 319 321 324
329 330 330 326 324 326 328 329 329 329 330 330 330 329 329 328 329 329 329 329 329 329 330 330 331 331 331 331 331 332 332 331 331 331 331 330 329 329 328 327 327 326 324 323 322 319 317 317 316 315 316 316 317 317 317 317 317 317 317 316 316 316 316 317 317 317 316 316 316 317 316 315 315 316 315 317 318 318 318 317 317 318 318 319 321
331 331 332 327 323 325 326 326 327 327 328 329 328 329 328 328 328 327 327 327 327 328 329 329 330 329 329 329 330 330 331 331 331 331 331 330 329 328 328 328 328 327 324 323 322 319 318 317 316 315 316 316 316 316 317 318 317 317 317 317 317 317 317 317 317 317 317 316 316 316 316 316 316 316 316 316 317 318 319 319 319 320 320 320 319
333 332 335 330 323 323 324 324 326 325 326 328 327 328 328 327 327 327 326 327 327 327 328 328 328 328 328 329 328 328 329 329 330 330 330 330 329 328 328 328 329 328 326 323 322 321 320 319 316 315 316 316 315 315 316 317 317 317 317 317 317 317 317 317 317 317 316 316 317 317 316 316 316 316 316 316 317 319 319 318 318 318 319 321 320
333 334 337 328 321 323 324 323 324 324 324 325 326 327 328 327 327 327 327 327 327 327 327 327 328 328 328 328 328 328 327 327 327 328 329 329 328 328 328 328 329 329 327 325 323 322 321 320 317 315 316 315 315 315 315 316 317 317 317 316 316 316 316 317 317 317 316 315 316 316 316 316 316 315 315 315 317 319 318 316 316 315 317 320 321
335 338 336 326 321 323 324 322 323 324 323 323 325 327 327 327 327 327 327 327 327 327 327 327 327 327 327 328 328 328 328 327 327 327 327 327 327 328 328 329 329 329 327 325 325 323 322 321 318 316 316 316 315 315 315 315 316 316 316 315 314 314 315 316 317 317 316 315 314 314 315 316 316 315 315 316 317 318 317 315 315 315 316 318 320
335 337 330 321 321 324 323 323 323 324 324 324 325 326 326 326 326 326 327 327 327 327 326 327 327 327 327 327 326 327 327 328 328 327 327 327 328 328 328 329 329 329 327 325 325 325 323 322 320 318 316 316 316 315 315 315 315 315 315 315 314 312 312 313 315 316 315 314 314 314 314 316 316 315 315 316 317 317 316 315 315 315 316 316 318
335 334 327 320 322 324 323 323 324 324 325 324 325 326 325 325 325 326 326 326 327 327 326 327 327 326 326 326 326 326 326 327 327 327 327 327 328 329 329 330 330 329 328 327 326 325 323 322 321 319 318 317 316 315 315 315 315 315 315 315 314 312 311 312 312 313 314 314 314 314 315 315 315 315 315 315 316 316 316 315 314 315 316 317 317
337 336 333 328 326 324 323 323 324 324 325 325 325 325 324 324 324 324 325 325 326 327 327 327 326 326 326 325 325 326 326 326 326 326 327 327 328 329 330 331 330 329 328 327 326 325 323 321 321 321 320 318 317 315 315 315 315 315 315 315 315 313 311 311 311 311 312 314 315 315 315 315 315 315 315 315 315 316 316 315 314 315 316 317 317
337 336 335 333 329 323 322 324 324 324 325 325 325 325 324 324 323 324 324 324 325 326 327 327 326 326 325 324 324 324 325 325 326 326 327 327 328 329 330 331 330 329 329 328 327 325 323 321 321 321 320 319 318 316 315 315 315 315 315 315 315 314 313 312 311 310 310 313 314 314 315 315 315 315 314 314 315 315 315 315 315 315 316 316 316
336 336 334 333 330 324 322 323 323 324 324 324 324 324 325 324 323 324 324 324 325 326 327 326 326 325 323 322 323 323 324 324 325 326 326 327 328 330 331 330 330 330 329 328 326 324 323 322 322 321 320 320 319 318 316 315 315 315 315 315 315 314 313 313 312 309 309 312 313 314 314 315 314 314 314 314 315 315 315 315 315 315 316 316 315
334 336 336 336 336 330 323 321 322 324 324 324 324 324 325 325 324 324 324 325 325 325 326 325 325 324 323 322 322 323 324 324 325 326 325 325 327 329 329 329 329 329 328 326 325 323 323 323 322 321 321 320 320 319 317 316 316 316 316 316 315 314 314 314 313 310 308 310 313 314 314 314 313 313 313 314 315 315 315 315 315 315 316 316 314
335 336 336 337 340 335 324 320 323 324 323 324 324 324 324 324 324 324 324 325 325 324 324 325 325 324 323 322 321 323 324 324 325 326 325 324 324 326 326 325 326 325 324 324 324 323 323 322 322 321 321 320 320 320 319 317 317 316 316 316 315 315 315 314 313 312 308 307 311 313 313 312 313 313 314 315 315 315 315 315 315 316 316 315 313
336 335 334 336 338 331 322 321 323 323 323 324 324 324 324 323 323 324 325 325 325 324 324 324 325 324 323 322 322 322 323 325 325 325 325 324 324 324 324 323 324 324 323 323 323 323 322 322 322 321 321 320 320 320 319 319 318 317 316 316 316 315 315 314 313 313 310 307 308 312 313 312 313 314 314 315 315 314 315 315 315 315 315 314 313
335 334 332 334 333 326 320 322 324 323 324 325 324 324 325 324 323 323 324 325 324 325 325 324 324 324 322 322 322 321 322 324 325 325 325 324 324 324 324 323 323 323 323 323 323 322 322 322 322 322 321 321 321 320 320 320 319 318 317 317 317 316 316 315 314 314 313 310 308 310 312 312 311 312 312 313 313 313 314 314 314 315 314 313 312
337 335 335 339 337 329 323 323 324 324 325 325 325 325 325 325 325 324 323 324 323 324 324 324 324 324 323 322 321 321 321 322 324 325 325 325 324 324 324 324 324 323 323 323 323 322 322 322 322 322 321 321 321 320 320 320 320 319 319 318 318 317 316 316 315 315 315 312 308 307 310 311 311 311 311 312 313 314 315 314 314 314 314 312 311
341 338 343 345 336 327 324 324 325 325 325 325 325 325 325 325 325 324 323 323 323 323 323 323 324 323 323 322 321 321 320 320 322 323 324 324 324 324 324 323 323 323 323 323 322 322 322 322 321 322 321 321 321 320 320 320 320 319 319 319 319 318 317 317 317 316 316 313 309 307 309 310 311 311 311 311 312 313 314 314 314 314 314 312 311
339 339 344 338 326 323 324 325 325 325 325 326 326 326 326 326 326 325 325 324 323 324 322 322 322 322 322 322 321 321 321 320 321 322 323 324 323 323 323 323 323 323 323 323 323 322 322 322 322 322 321 321 320 320 320 320 320 319 319 319 319 319 318 317 317 317 317 314 310 308 310 311 311 311 311 312 312 312 313 314 314 314 314 312 311
339 342 339 328 322 323 325 324 324 325 325 325 326 326 326 326 326 326 325 325 324 323 323 322 322 321 322 321 321 321 321 321 321 321 322 322 322 322 322 322 322 323 322 323 322 322 322 322 322 321 321 321 321 320 320 320 320 320 319 319 319 319 318 317 317 317 317 315 311 309 310 311 311 311 311 311 312 312 313 314 315 315 314 313 311
336 334 331 324 322 323 324 323 324 324 325 325 325 326 325 325 324 324 324 324 324 324 323 322 322 321 321 321 321 321 321 322 322 321 321 321 321 322 322 322 322 322 322 322 322 322 322 321 321 321 321 321 320 320 320 320 320 320 320 319 319 319 318 317 317 317 317 316 312 309 310 311 311 311 312 312 312 313 313 313 315 315 314 312 311
325 323 324 323 322 323 323 322 323 323 323 324 324 324 324 324 324 323 323 324 323 323 323 322 322 321 321 321 321 321 321 321 322 321 321 320 321 321 321 321 321 321 322 322 321 321 321 321 321 321 321 320 320 320 320 320 320 320 320 319 319 319 318 318 318 317 317 317 314 310 309 311 311 311 312 312 312 314 314 314 315 315 313 311 310
321 322 323 321 321 322 322 322 323 323 323 324 323 324 324 324 324 324 323 323 323 323 322 322 322 322 321 321 321 321 321 321 321 321 321 321 321 321 321 321 321 321 321 321 321 321 321 321 321 320 320 320 320 320 320 320 320 319 320 320 319 319 319 318 318 318 317 317 316 312 309 310 311 311 311 311 312 313 314 314 315 314 312 310 309
322 322 321 321 321 321 322 323 323 323 323 323 324 324 324 324 324 324 323 323 323 323 323 322 322 322 322 322 321 321 321 321 321 322 321 322 322 321 321 321 320 321 321 320 320 320 320 320 321 321 321 320 320 320 320 320 320 320 319 320 320 319 318 318 318 318 317 317 317 314 311 310 310 311 311 311 311 312 313 315 315 313 311 309 309
323 321 321 322 321 321 323 323 323 323 323 324 324 325 324 325 325 324 323 323 323 324 323 323 323 323 323 323 322 322 322 321 321 322 321 322 322 321 321 321 320 321 321 320 320 320 320 319 319 320 321 321 321 321 320 320 320 320 320 320 320 319 318 318 318 318 318 318 317 316 313 310 310 311 311 311 311 312 312 314 314 312 310 309 308
323 324 324 322 322 322 322 322 322 323 323 324 325 325 325 325 325 324 324 324 324 324 324 324 323 323 323 323 323 322 322 322 321 322 321 321 321 321 321 321 321 321 320 320 320 320 320 319 319 320 320 321 321 321 321 321 321 320 320 320 320 319 319 319 318 318 318 318 317 317 316 312 310 310 311 311 311 312 312 312 312 311 309 309 308
324 325 325 324 324 323 323 323 323 323 323 324 325 326 326 326 326 325 325 325 325 325 325 325 324 324 323 323 323 322 323 323 322 322 321 321 321 321 321 321 321 320 320 320 320 320 320 320 320 320 321 321 322 321 322 322 321 321 321 320 320 320 320 319 318 317 317 318 318 318 318 315 311 310 310 311 311 312 312 311 311 310 309 308 308
325 325 325 325 325 324 324 325 324 324 324 325 325 326 327 326 326 326 326 326 326 326 326 325 324 324 324 323 323 323 323 323 322 322 322 321 321 321 321 321 321 321 320 320 321 321 321 321 321 321 321 322 322 322 322 322 322 322 322 321 321 320 320 319 319 318 318 318 318 318 318 317 314 311 310 310 311 312 312 311 311 309 308 308 308
324 324 326 326 325 325 325 325 325 325 325 325 326 327 328 327 327 327 326 327 327 326 327 326 325 325 325 324 324 324 323 323 323 323 323 323 321 321 321 321 321 321 321 320 321 321 321 321 322 322 322 321 321 322 322 322 322 322 322 322 322 321 321 320 319 319 319 318 318 318 318 318 316 313 310 309 310 311 311 311 310 309 307 307 307
324 323 324 324 324 325 324 323 323 323 322 323 324 325 327 327 327 327 327 327 327 327 326 326 326 325 326 325 325 325 324 323 323 323 324 323 322 322 321 321 322 321 321 321 321 321 321 321 322 322 322 322 321 322 322 322 322 322 322 322 321 321 321 320 320 320 319 319 319 319 318 317 317 315 311 309 309 310 310 310 309 308 307 307 307
322 321 322 323 325 325 323 322 322 322 321 322 322 322 324 325 325 326 327 326 326 326 326 326 326 326 325 326 326 326 326 325 324 324 324 323 322 322 322 322 322 321 321 321 321 321 321 321 321 322 322 322 322 322 322 322 322 322 322 322 321 321 321 321 320 320 319 318 318 318 317 316 316 315 311 309 308 308 308 309 309 308 307 306 306
319 319 319 321 323 322 321 321 321 322 322 322 322 322 322 322 323 326 327 326 325 325 324 324 324 324 324 325 326 326 326 326 325 324 323 323 324 324 323 323 322 321 321 321 321 321 321 321 321 321 322 323 323 323 323 322 322 322 322 322 321 320 320 320 320 320 319 319 318 317 315 314 314 313 311 309 308 308 308 308 307 307 306 305 305
318 318 318 319 319 319 319 319 319 321 321 321 323 323 322 322 323 323 325 325 323 323 323 322 322 323 323 323 324 326 326 326 326 325 325 325 325 325 323 323 323 322 322 321 321 322 322 321 321 322 322 322 322 323 323 322 321 322 322 321 321 320 319 319 319 319 320 319 318 315 313 313 312 311 310 309 308 308 307 307 306 306 306 306 307
317 318 318 318 318 318 318 318 319 319 319 320 322 323 322 322 323 323 324 324 323 322 322 322 321 321 321 321 322 324 325 325 325 324 324 323 323 323 323 323 323 323 323 322 322 322 322 322 322 322 322 321 322 323 323 322 321 321 321 321 320 319 319 319 318 318 319 318 316 313 312 311 311 310 310 309 309 308 307 307 307 307 308 308 310
317 318 318 318 319 319 319 319 319 319 319 320 322 322 322 322 323 324 324 324 323 323 321 321 321 320 320 321 322 322 322 322 321 321 321 321 320 321 322 322 322 321 321 321 321 321 321 322 322 322 322 322 323 323 322 321 321 321 320 320 320 319 319 318 318 318 317 316 314 312 312 311 311 310 310 309 310 309 308 308 309 309 310 311 312
316 316 317 317 318 319 319 319 319 319 320 321 321 322 322 322 322 323 322 322 322 322 321 321 321 321 321 321 320 319 319 319 319 319 319 320 320 319 319 319 319 318 317 317 317 317 317 318 320 322 323 323 323 323 323 321 321 320 320 319 319 319 318 318 318 317 316 315 314 312 311 311 311 310 310 310 310 310 309 309 310 311 311 312 313
Wind_Speed
13 16 17 18 18 17 16 14 12 13 13 12 12 12 12 12 11 11 9 9 9 8 7 6 5 4 2 1 1 4 4 4 5 5 7 9 9 9 9 9 10 10 10 10 12 13 13 13 12 13 13 14 17 18 17 17 15 14 13 14 15 17 19 20 18 13 11 8 6 8 8 7 5 4 5 7 7 6 5 6 6 7 7 7 7
8 11 14 17 17 17 17 16 15 15 13 12 12 12 12 12 12 12 11 11 10 9 8 6 5 4 3 1 1 1 1 3 5 4 4 7 9 9 8 8 9 10 10 9 10 12 12 12 12 13 12 13 15 16 16 16 16 15 14 14 15 15 16 19 19 16 12 7 4 5 7 7 7 7 9 9 8 8 8 8 8 8 8 7 7
5 7 11 16 18 18 19 18 17 16 15 14 13 12 13 13 14 13 13 12 11 10 8 7 6 6 4 3 3 2 2 2 3 3 2 4 7 8 7 8 8 8 8 8 8 10 10 10 11 12 12 12 13 15 15 15 16 16 16 16 14 14 15 17 18 17 15 8 4 3 3 4 5 8 12 11 9 9 9 9 9 9 9 8 7
6 6 9 14 17 18 19 19 18 17 16 16 14 13 13 14 15 15 14 13 12 11 9 8 7 6 5 4 5 4 3 2 0 1 2 2 5 6 6 7 7 6 7 7 7 7 8 9 10 12 12 12 12 14 14 14 15 15 15 16 15 14 15 16 16 17 19 12 5 2 1 2 2 5 12 11 10 10 9 11 11 10 10 8 8
8 8 8 12 16 18 19 19 19 18 18 17 16 15 14 13 14 15 16 15 13 11 10 8 8 7 6 6 5 5 4 2 2 2 1 1 2 3 5 5 5 5 5 5 6 5 6 7 9 11 11 11 12 13 14 12 13 14 14 14 16 14 14 16 16 17 19 17 10 3 2 2 1 5 8 7 11 11 9 12 11 11 12 10 9
8 8 9 12 15 17 18 18 18 19 19 17 16 15 14 13 12 14 15 15 13 11 10 9 8 7 7 7 6 5 4 2 3 2 1 1 1 2 2 3 4 4 4 5 7 6 5 6 7 10 10 10 11 12 13 12 12 14 14 14 15 14 15 17 17 16 17 18 17 11 6 3 2 6 4 3 9 10 11 14 11 13 15 12 11
6 6 8 10 14 16 16 18 19 19 17 16 16 16 14 14 13 13 14 13 12 11 11 10 9 8 8 8 6 5 4 2 3 3 2 2 2 2 1 1 3 4 5 6 7 7 6 6 7 8 9 9 10 11 12 12 12 13 13 13 14 14 15 17 18 16 15 16 16 15 13 9 5 5 4 3 5 7 13 16 14 16 15 11 12
6 6 7 9 14 17 18 20 21 18 16 15 16 16 15 15 14 13 13 13 13 12 11 11 10 9 8 8 7 6 6 3 3 4 4 4 3 2 2 2 2 3 4 5 6 6 7 6 6 7 8 9 9 10 11 11 11 12 11 11 12 13 14 15 17 17 16 15 15 15 14 13 9 7 8 7 2 3 9 13 17 21 17 12 13
7 7 7 10 14 18 20 21 21 19 17 15 15 15 15 14 14 13 14 14 14 13 12 11 11 10 9 9 8 7 6 5 4 6 6 6 5 2 3 3 3 3 3 4 5 5 6 6 5 5 7 8 8 8 9 9 10 11 11 11 11 12 12 12 15 16 15 15 15 15 14 14 13 11 13 13 5 2 4 6 13 20 18 15 17
7 7 8 12 15 18 20 20 20 19 17 15 15 14 14 14 14 15 15 15 15 14 13 12 11 10 10 10 10 9 8 6 6 7 7 7 6 4 4 3 3 4 3 5 5 5 6 6 5 6 7 7 7 7 8 8 9 10 11 11 11 11 11 11 13 14 14 14 14 15 15 15 12 9 12 13 6 2 3 4 7 11 11 14 19
5 5 7 11 14 16 17 18 18 18 17 16 15 14 14 14 15 15 15 15 16 15 14 12 11 11 11 11 11 11 10 9 8 8 8 9 8 6 5 4 2 5 4 4 4 4 5 5 4 6 6 6 6 5 6 7 8 9 10 10 11 11 11 11 12 12 13 13 12 13 14 13 10 7 9 11 7 3 4 4 7 11 9 11 19
5 4 5 8 10 12 14 15 16 16 15 15 15 14 14 14 14 15 15 15 15 15 14 13 12 12 12 12 12 12 11 11 11 9 8 9 9 7 6 5 3 6 5 3 4 4 4 4 3 4 4 4 4 4 4 6 6 7 8 9 9 10 10 10 11 11 12 12 12 11 11 12 12 11 11 11 9 7 6 3 7 12 9 10 18
6 5 5 6 8 10 12 13 14 15 15 14 14 14 14 14 14 15 15 15 15 15 14 14 13 13 13 13 14 13 12 13 12 11 9 10 10 8 7 5 3 6 6 4 3 3 3 4 4 3 2 2 3 2 3 5 5 5 5 6 7 8 8 8 9 11 10 10 11 10 11 12 11 12 12 11 10 11 9 5 7 11 7 9 16
6 6 6 5 8 11 13 14 15 15 14 13 13 14 14 14 14 15 14 14 14 14 14 13 13 13 13 14 14 14 14 14 13 11 10 9 10 9 7 5 4 5 5 4 2 2 2 3 4 3 2 2 1 1 2 4 4 4 4 4 6 6 6 6 7 9 8 8 9 9 11 12 10 12 15 12 10 11 11 7 7 8 7 8 11
6 6 6 7 10 13 14 15 16 16 14 13 12 12 12 12 13 13 12 12 13 13 13 13 13 11 11 12 14 14 15 14 13 12 10 10 10 9 8 7 6 6 5 3 2 2 3 2 3 2 2 2 1 1 1 2 2 3 3 3 4 5 5 6 6 7 7 7 7 7 9 9 9 13 16 13 9 9 11 9 7 6 4 5 6
6 6 6 8 12 14 16 17 17 16 15 14 13 12 12 11 11 11 10 9 11 11 11 11 11 10 10 10 12 13 14 14 13 12 11 10 10 10 9 7 7 7 6 5 4 3 4 3 1 1 1 1 1 2 2 1 0 2 2 3 3 4 4 5 6 7 6 5 6 6 7 7 9 12 15 11 7 7 9 9 9 6 3 3 4
7 7 6 8 12 15 18 19 18 17 16 15 15 14 13 12 11 10 9 8 9 9 8 8 8 9 9 9 10 11 12 12 12 12 11 11 11 11 10 8 7 7 7 6 5 5 5 5 3 2 2 2 1 2 2 3 2 1 1 1 2 3 3 3 4 5 5 6 6 6 7 8 9 11 13 12 8 8 8 8 9 8 5 3 2
7 7 7 9 13 16 17 17 18 18 18 17 16 14 13 12 12 10 10 10 9 10 9 8 8 8 8 8 8 9 10 10 10 11 11 12 12 12 11 10 8 7 7 7 6 7 7 5 3 4 4 3 2 2 3 4 3 3 3 2 1 1 2 1 1 2 2 4 6 6 8 9 9 10 13 14 11 9 9 9 9 10 10 6 3
6 6 6 7 11 14 13 14 16 16 17 18 17 15 14 13 13 11 10 11 10 11 11 10 9 9 8 7 7 7 8 8 9 10 11 13 14 13 13 12 9 7 7 7 7 8 8 6 5 4 5 4 3 4 5 6 6 6 6 5 4 3 3 2 2 3 2 3 5 5 7 8 9 11 12 13 14 11 9 10 10 11 12 11 6
6 6 6 6 11 13 12 14 16 14 15 17 17 16 16 16 15 12 11 12 12 12 11 10 10 9 8 8 8 8 8 8 9 10 12 14 14 15 14 13 11 8 7 7 7 8 7 7 7 6 5 5 2 3 5 7 8 8 8 7 5 5 5 5 4 4 3 4 3 3 5 6 7 10 11 12 12 11 10 11 11 12 12 12 11
7 6 5 7 12 14 13 14 14 12 13 16 16 17 18 17 17 14 13 13 14 13 12 10 10 10 10 9 9 9 9 9 10 11 13 14 15 15 14 13 12 10 9 8 7 8 8 7 9 8 6 4 3 3 4 6 8 9 8 6 4 4 5 6 6 5 4 4 5 4 4 3 5 8 10 10 9 9 11 14 13 13 12 11 12
8 7 6 8 12 14 14 15 14 11 12 15 15 17 18 18 17 16 15 15 15 14 13 12 11 10 10 10 10 10 10 10 11 11 12 13 14 14 13 13 13 12 11 10 8 8 8 7 8 10 9 7 5 5 5 5 7 8 8 5 2 3 4 5 7 7 7 6 6 6 5 3 4 7 9 8 7 8 11 13 13 12 12 11 11
8 7 7 10 15 17 15 15 14 12 13 16 17 18 18 18 17 17 17 16 16 16 14 12 12 12 11 11 11 11 11 11 12 12 12 12 13 13 13 14 14 12 12 12 10 8 8 7 7 9 10 10 8 6 6 6 7 9 10 7 3 3 3 4 6 7 7 7 7 6 5 4 4 6 8 8 6 7 10 11 11 11 10 10 10
7 7 8 12 15 16 14 13 15 15 15 17 19 19 17 17 16 17 17 16 16 17 15 13 12 12 12 12 12 12 12 13 13 13 13 12 12 12 13 14 14 12 11 12 11 9 8 7 7 7 9 11 10 8 7 8 9 10 11 8 5 4 3 4 6 7 7 7 8 7 5 4 4 6 8 9 7 6 9 10 10 10 9 9 10
7 7 8 10 11 12 13 14 16 17 17 18 20 19 17 15 14 16 16 12 12 16 17 14 13 12 12 11 11 12 13 14 15 15 14 13 12 12 12 13 13 11 10 12 12 10 8 8 8 9 10 11 10 7 6 8 10 11 10 8 7 5 4 4 5 7 7 6 7 8 7 5 5 6 7 9 8 7 9 10 9 10 9 8 10
8 8 8 9 9 11 13 14 15 17 18 20 22 21 18 14 13 14 15 12 10 14 17 15 13 13 11 9 8 8 9 11 12 12 12 12 12 12 11 11 11 10 9 11 12 11 10 10 10 11 11 11 10 8 7 7 9 10 10 9 8 7 6 5 5 6 6 6 5 6 7 7 6 7 8 8 7 8 10 10 9 10 10 9 10
8 8 8 8 8 10 12 13 13 14 16 20 23 22 18 15 14 15 16 14 11 13 16 15 14 12 9 8 8 8 7 7 8 9 8 8 10 10 10 10 10 10 10 11 12 12 12 13 12 11 10 10 9 9 9 9 9 9 10 10 9 8 6 6 5 6 6 7 6 5 6 7 8 9 9 8 8 8 8 8 8 10 9 8 9
7 7 8 8 8 9 11 14 13 13 14 17 19 19 17 17 16 16 16 15 13 14 15 15 14 12 9 9 9 9 9 9 9 9 8 7 8 9 8 8 9 10 10 11 12 12 12 13 13 12 12 11 9 8 10 11 11 10 10 11 11 9 7 6 5 6 6 6 7 6 6 8 9 11 12 11 9 7 6 6 8 8 6 6 7
8 8 8 8 8 8 11 14 13 13 14 15 16 16 15 13 14 15 17 17 15 15 15 14 15 13 10 8 8 10 12 11 10 10 9 8 8 9 8 9 9 10 11 11 13 13 13 13 13 13 12 11 9 8 8 10 12 12 13 13 12 10 8 7 6 6 7 6 8 8 8 9 9 10 11 10 7 5 5 7 7 6 6 6 7
9 9 8 8 8 9 10 12 12 13 14 14 14 15 13 10 9 12 17 17 16 16 16 15 16 15 10 8 9 11 12 14 14 13 12 11 10 10 10 10 12 12 12 13 14 15 16 15 14 14 12 11 10 9 8 8 10 13 14 14 13 11 9 8 8 7 7 6 7 10 10 7 5 5 6 6 6 6 7 8 7 7 7 7 7
9 8 7 7 8 7 7 10 13 15 15 14 14 13 12 11 10 11 15 15 14 16 17 17 17 14 10 9 10 11 11 14 16 16 15 14 13 12 12 13 13 14 15 15 15 16 17 17 16 16 14 13 13 12 11 10 10 11 13 14 13 12 10 9 9 8 8 7 6 9 10 8 6 6 7 8 9 10 10 10 9 9 9 8 7
8 7 7 7 7 6 8 12 15 16 16 16 14 13 12 13 14 13 14 13 12 13 15 17 18 15 12 11 11 12 12 14 17 18 18 17 16 15 15 15 16 16 16 17 18 19 19 19 18 18 17 17 16 15 14 13 12 12 13 14 14 13 11 10 10 9 9 8 7 7 10 12 12 10 10 11 12 13 14 12 12 11 10 9 8
7 6 6 6 7 9 12 15 17 18 19 17 15 14 14 14 14 15 14 14 13 13 14 17 17 16 15 13 12 12 13 15 17 19 20 20 19 19 18 18 19 19 19 20 21 22 21 21 20 20 20 19 18 17 16 16 16 15 15 15 14 14 13 12 11 11 10 8 7 6 8 12 14 12 12 13 15 16 17 16 14 13 12 10 9
5 5 5 6 7 10 13 16 18 19 19 16 15 15 15 14 14 15 16 16 16 16 16 16 16 17 17 16 14 14 15 17 18 18 20 21 21 22 22 22 22 22 22 23 24 25 24 23 23 23 22 22 20 19 19 18 18 17 17 16 16 16 15 14 13 12 10 8 7 7 9 11 12 12 12 13 15 17 19 19 18 16 14 12 11
5 5 6 7 9 10 12 15 17 18 17 16 15 15 15 14 14 15 16 17 18 18 18 17 17 19 18 18 19 18 18 20 20 21 21 21 22 23 23 24 24 25 25 25 25 26 26 26 26 25 24 24 22 21 21 20 20 19 19 18 18 18 17 17 15 14 12 10 7 8 11 12 12 13 13 14 16 17 19 21 20 18 16 14 13
7 7 8 9 10 11 11 12 13 14 15 15 15 14 14 14 13 14 16 17 18 19 20 20 20 21 21 21 22 22 22 22 23 23 22 22 22 23 23 24 25 26 26 26 27 27 27 27 26 26 26 26 24 23 22 22 21 21 21 20 20 20 20 19 18 16 14 12 9 10 12 13 13 13 13 15 17 18 19 21 21 19 17 15 14
9 10 11 10 8 8 8 8 10 12 13 14 14 14 15 14 14 14 16 18 19 21 21 22 22 22 22 22 23 24 25 25 25 25 25 24 23 24 24 24 23 24 26 27 28 28 28 28 27 27 27 27 26 24 23 23 23 23 23 23 23 23 23 22 21 18 16 15 13 11 12 13 13 13 14 15 16 17 18 20 21 19 17 16 15
11 11 10 9 9 9 8 9 10 11 13 14 14 15 16 16 16 16 17 19 21 23 23 23 23 23 23 23 24 25 26 26 27 28 29 29 27 26 26 25 24 24 24 25 26 26 26 27 28 28 28 28 28 27 25 25 25 24 25 26 26 26 26 25 24 21 19 18 16 13 12 14 14 13 14 14 13 13 16 19 20 18 16 17 16
13 12 11 11 12 12 12 12 13 14 14 15 15 17 18 19 19 19 19 20 23 25 26 26 26 25 24 24 24 25 26 26 27 27 28 29 29 28 28 27 26 25 24 23 23 22 22 23 25 27 28 29 30 29 27 26 27 26 27 27 28 28 28 27 26 24 21 20 19 17 14 14 14 14 13 12 10 10 13 17 18 17 17 17 15
9 11 13 13 13 13 13 14 16 17 16 16 17 19 20 21 23 21 21 23 25 27 28 28 28 27 27 26 26 26 26 26 25 25 24 24 25 26 27 27 27 27 26 24 22 21 21 22 22 23 24 26 28 28 27 27 27 27 27 28 29 30 30 30 29 27 25 22 21 19 17 15 14 14 13 11 10 10 12 15 16 17 17 16 14
11 9 10 12 15 15 16 18 18 18 18 18 20 21 22 24 24 23 24 26 27 28 29 29 29 29 29 29 28 27 27 26 25 24 23 23 24 25 26 27 28 29 28 27 25 23 23 23 23 22 22 23 25 26 26 26 26 26 26 26 29 30 31 32 31 29 27 25 23 22 20 17 16 15 14 13 12 11 12 14 16 16 16 15 14
15 14 13 12 12 13 14 16 18 18 20 20 20 21 24 25 24 24 26 27 28 29 30 30 30 31 31 31 31 30 29 28 26 26 25 26 26 26 27 28 29 30 30 29 27 25 25 26 25 24 23 24 24 24 24 24 25 25 25 25 27 29 30 31 32 31 29 27 25 23 22 19 17 17 16 15 14 13 13 15 17 16 16 15 16
14 13 11 10 10 11 12 14 16 17 19 20 19 21 23 24 25 26 28 28 28 29 30 30 30 31 32 33 33 33 31 30 29 28 29 30 30 29 29 29 29 30 30 29 29 28 27 27 26 25 25 25 25 24 24 23 24 25 25 25 26 26 27 30 32 33 32 30 27 25 24 21 19 19 19 18 16 15 16 18 18 17 17 17 18
13 13 12 11 11 13 14 15 16 17 18 19 18 19 22 24 26 27 28 29 29 28 28 28 29 30 31 33 34 34 34 33 32 31 31 32 32 32 31 31 30 31 30 30 30 29 27 26 27 27 26 26 25 25 24 23 23 24 24 25 26 26 27 29 31 33 33 32 30 27 26 23 21 21 21 20 18 18 19 20 19 18 19 19 20
18 18 17 15 12 12 13 15 18 20 21 22 20 18 20 24 27 28 27 26 25 23 21 23 24 25 26 28 29 31 33 33 32 32 32 32 32 32 31 31 31 31 30 29 30 29 28 27 27 28 28 27 26 26 25 23 22 22 23 24 25 26 28 29 31 33 34 33 32 30 28 25 22 22 22 21 21 21 22 22 21 20 21 22 23
20 21 23 20 16 14 14 16 18 21 23 24 24 22 21 24 28 28 25 21 19 18 18 19 20 21 22 24 25 27 29 30 31 31 31 30 29 29 30 30 30 30 29 29 29 29 28 27 27 28 30 29 26 26 27 25 23 23 24 24 25 26 27 29 31 33 34 35 34 32 30 27 24 23 23 23 23 23 23 24 23 23 24 25 26
18 20 24 23 20 19 20 21 21 24 25 25 26 27 26 26 28 26 24 20 17 16 17 17 19 21 22 23 23 24 25 27 29 29 27 25 25 26 27 28 28 28 27 27 27 28 27 27 27 29 31 30 28 27 28 27 25 25 25 26 26 25 24 26 29 32 34 35 36 34 30 27 25 24 24 24 25 25 25 26 26 26 26 27 28
21 23 25 24 22 22 23 23 24 27 28 28 29 28 27 26 27 26 25 22 18 17 17 17 17 18 18 18 19 20 22 24 25 24 23 23 23 23 24 25 27 28 28 27 27 28 29 29 29 31 30 27 25 26 28 29 28 27 27 27 27 24 23 24 25 27 29 32 34 32 28 25 24 25 25 26 27 28 28 29 30 29 28 27 28
21 23 24 23 22 23 23 24 27 29 30 31 30 27 25 27 27 26 24 22 20 18 17 17 16 14 14 14 14 15 15 14 14 14 15 15 17 17 18 21 24 26 28 29 29 29 31 33 33 33 29 25 24 27 31 31 30 28 27 28 28 26 25 24 22 21 22 25 27 27 26 26 26 26 27 28 29 30 30 31 30 29 28 27 27
22 23 24 24 24 24 24 24 27 28 29 31 31 28 27 27 23 19 18 18 16 16 16 16 14 11 8 7 6 6 6 7 8 10 11 13 14 14 14 16 18 18 20 23 24 27 30 33 35 36 33 30 31 33 33 31 31 28 26 26 27 24 22 20 18 16 16 19 21 22 23 26 27 27 27 29 30 29 29 29 29 28 27 26 25
21 22 23 24 25 26 25 25 27 28 28 29 28 26 25 22 19 16 15 15 15 15 14 11 6 3 2 4 5 7 8 9 10 11 13 14 14 14 15 16 16 16 16 17 19 22 25 28 31 36 38 37 38 37 33 30 28 24 21 22 22 20 18 18 18 16 16 17 19 20 22 24 25 25 27 29 29 28 27 27 28 27 26 25 26
Wind_Direction
233 221 208 200 195 192 192 192 188 182 185 193 196 197 197 197 197 199 207 216 220 231 240 248 263 289 323 352 50 59 70 50 52 79 62 48 47 43 41 44 53 65 65 55 53 55 59 62 57 54 57 57 58 57 52 49 46 45 50 52 50 44 38 34 29 28 32 21 8 15 19 30 38 22 360 340 330 331 323 317 321 326 324 312 293
217 208 205 197 191 192 192 192 190 190 193 203 211 213 211 210 210 211 214 220 227 235 240 251 266 272 278 266 270 5 57 38 48 73 68 55 53 44 41 50 62 71 67 57 56 57 56 59 57 54 54 54 57 57 53 51 47 44 43 46 49 45 38 33 31 32 29 19 360 2 13 29 44 41 21 6 352 345 340 334 330 336 337 327 310
177 182 192 190 189 190 190 192 197 204 207 213 223 225 221 222 222 218 217 223 230 234 244 259 268 264 253 242 256 277 292 338 33 54 81 70 56 45 44 58 71 72 62 58 63 62 58 58 55 56 58 54 54 55 52 50 48 46 41 39 43 44 42 38 38 37 31 32 33 15 6 358 18 19 1 357 2 356 354 349 339 339 337 327 319
173 176 185 187 189 188 189 194 202 209 214 217 223 225 225 226 224 220 219 224 231 240 253 259 261 258 242 242 268 286 288 278 267 92 101 81 56 46 49 62 74 73 63 60 68 70 67 64 58 61 65 58 56 58 54 50 45 42 41 39 37 36 38 39 44 44 38 41 34 340 345 7 15 348 337 342 4 5 6 3 353 349 342 329 321
176 183 188 187 189 191 193 199 204 209 214 219 223 225 228 228 224 223 224 229 236 247 257 258 260 259 250 252 267 276 274 257 215 174 137 136 65 38 49 65 70 66 59 58 68 76 75 71 64 65 65 58 60 60 55 51 44 42 43 45 44 40 39 42 48 49 46 50 50 29 350 19 328 326 330 336 354 359 9 6 360 0 355 341 329
182 185 187 187 189 193 196 199 204 210 216 222 226 229 233 234 229 227 228 233 240 248 255 257 261 262 257 252 255 262 258 238 216 203 178 186 305 349 36 70 74 66 61 63 66 68 73 78 73 68 63 59 61 59 53 51 48 49 50 52 53 49 48 48 45 47 51 54 55 54 40 24 317 336 351 325 338 352 7 8 7 2 356 349 339
195 190 187 186 188 192 196 200 204 213 220 224 228 231 236 239 236 232 231 233 239 247 252 253 257 262 260 254 252 256 256 244 220 220 218 230 298 310 291 75 88 80 72 71 65 62 68 81 78 70 66 61 61 58 51 49 52 55 54 54 54 49 51 52 44 44 49 49 51 53 46 41 25 5 10 326 328 341 351 360 6 1 360 360 352
190 191 192 188 190 192 195 200 205 214 221 222 226 231 236 238 239 236 233 234 239 244 248 250 250 253 255 252 252 258 269 277 236 229 234 238 261 283 266 249 130 103 88 84 75 68 67 71 70 67 67 59 59 60 52 48 52 52 48 48 49 47 50 53 50 48 46 43 43 45 44 42 39 31 17 4 331 302 337 350 355 356 2 11 4
185 190 195 193 196 197 197 201 206 213 218 220 226 232 235 237 238 235 234 235 239 241 246 249 247 247 249 248 252 261 270 279 262 244 236 237 245 258 275 258 171 138 111 101 93 81 64 57 61 68 68 58 56 61 54 50 51 48 46 47 47 47 49 53 53 51 48 45 42 40 37 32 31 28 18 10 355 299 334 334 343 351 354 358 3
189 191 196 200 203 202 200 203 207 211 216 221 226 231 232 234 233 231 234 237 239 241 244 248 247 245 246 247 252 258 261 268 269 253 234 234 245 253 280 275 185 165 133 106 100 89 64 51 63 83 78 61 55 60 56 53 53 50 51 55 55 52 50 52 53 50 47 45 41 40 36 29 27 20 6 3 355 333 335 309 330 345 339 340 353
188 189 197 204 206 203 200 204 208 211 215 219 222 225 227 230 230 230 235 240 242 242 244 251 250 247 250 252 256 262 265 272 276 263 238 230 244 255 272 285 199 174 157 119 107 91 67 52 68 94 92 66 54 58 52 51 56 52 51 54 53 49 46 48 50 46 44 42 39 39 36 31 28 13 356 359 360 344 333 319 328 336 325 325 344
171 171 183 191 193 194 193 197 203 205 209 212 215 219 223 227 230 233 237 242 245 244 246 253 253 252 257 257 260 266 269 277 281 277 256 240 252 262 258 268 221 178 173 147 127 99 69 62 78 105 107 71 50 48 48 50 51 50 52 53 47 44 44 41 41 42 42 38 35 35 31 27 24 17 13 17 19 6 356 340 329 337 332 325 341
163 166 174 177 182 187 187 188 194 197 201 207 211 215 221 226 229 232 236 240 245 247 247 252 254 255 257 256 260 265 266 272 276 277 272 257 259 264 248 242 216 186 187 181 152 119 86 80 85 112 125 76 36 26 49 51 42 43 57 59 49 47 50 42 37 40 40 32 27 23 18 20 20 16 16 21 20 12 9 358 335 340 329 321 338
167 172 176 182 190 191 189 189 191 193 198 202 206 211 217 224 226 230 237 240 242 246 248 250 253 255 256 255 257 260 260 264 269 271 271 261 256 261 253 239 227 207 202 202 176 159 154 95 82 108 125 83 48 25 54 47 32 37 49 50 49 52 55 50 40 38 39 33 25 14 6 9 13 11 8 5 7 8 3 354 344 342 326 319 332
173 179 182 191 195 192 190 190 191 194 198 199 201 202 207 214 220 227 235 237 237 240 243 244 248 252 253 253 254 256 257 260 268 269 266 258 248 251 256 252 250 243 232 221 195 194 202 153 87 111 119 75 97 158 93 43 17 22 25 29 47 49 46 50 42 32 34 36 31 17 1 356 358 2 2 357 353 353 349 348 359 356 332 327 327
178 185 190 200 201 197 195 194 196 198 200 203 203 201 202 206 213 218 222 226 227 230 235 238 243 247 249 252 251 252 254 257 262 260 256 251 242 244 253 256 256 253 249 240 225 230 226 207 181 174 177 45 98 160 187 198 333 7 9 16 42 47 43 53 47 31 25 20 17 14 1 349 348 356 1 355 334 331 340 346 360 6 351 329 324
182 188 191 200 203 203 201 198 200 202 200 203 207 205 203 204 209 213 213 213 216 221 227 230 235 239 241 244 244 245 249 252 252 250 249 245 238 241 248 249 249 247 250 253 244 246 237 219 237 256 239 269 252 176 203 212 222 257 298 357 41 52 46 61 54 32 24 8 355 0 3 357 355 355 359 356 332 322 333 340 349 353 347 321 298
175 183 187 193 197 200 200 198 202 204 202 205 209 208 205 203 204 206 209 212 214 216 218 219 223 226 228 232 236 239 243 244 245 245 243 238 234 236 241 246 252 250 250 255 248 242 231 214 230 252 245 250 264 262 236 221 230 244 251 278 294 32 15 15 359 347 10 4 349 350 354 357 0 353 353 358 347 326 327 341 352 352 351 343 287
165 178 185 192 194 193 192 192 197 201 204 207 210 209 208 205 204 207 213 219 220 216 214 215 217 218 221 224 228 233 237 238 240 242 239 236 236 237 239 243 250 249 243 244 242 238 232 222 225 243 242 235 263 291 257 238 247 250 252 267 268 267 291 304 313 308 319 337 334 338 341 344 354 350 348 357 355 342 340 357 5 1 3 3 341
175 187 189 194 194 190 184 184 191 198 204 207 209 211 209 208 209 213 217 220 224 220 216 217 219 221 224 226 229 234 237 238 241 244 241 239 239 239 240 244 249 250 239 234 238 239 246 245 232 232 235 217 235 298 267 249 252 252 257 269 272 269 273 276 282 290 306 319 313 323 333 333 343 345 346 355 0 4 11 16 13 6 9 15 7
185 192 189 198 201 199 191 186 193 205 208 205 205 209 210 212 217 220 218 218 221 221 219 220 220 223 227 229 233 236 237 240 244 246 245 245 244 241 243 246 247 250 243 238 241 243 254 255 232 228 233 217 223 272 260 248 247 247 251 257 261 263 263 260 260 264 272 291 299 298 304 323 334 332 339 355 7 14 15 14 14 9 9 17 12
190 191 187 198 206 212 208 198 201 215 213 205 205 208 212 218 223 226 224 222 221 217 217 220 221 227 233 234 237 239 239 240 241 245 248 248 244 243 246 244 240 246 243 238 245 245 248 254 236 232 242 248 251 251 247 243 238 233 225 221 242 270 269 256 247 251 259 275 300 303 294 301 323 320 327 347 0 3 4 6 11 11 7 8 10
188 184 186 196 205 216 219 208 206 214 213 207 205 209 217 223 228 229 229 230 227 221 219 224 230 238 241 241 244 243 242 242 242 246 250 250 246 246 248 243 242 249 240 234 246 251 248 255 252 243 246 254 263 267 259 240 226 216 209 215 256 268 275 276 256 253 264 276 291 299 300 299 303 314 321 328 339 345 351 356 0 4 3 360 1
183 181 192 198 205 218 228 220 213 213 212 207 205 210 220 226 231 234 233 233 232 226 222 226 235 241 243 247 253 252 249 247 247 250 252 254 254 252 250 247 248 251 240 234 244 251 251 254 257 256 256 260 267 272 256 232 222 216 214 229 262 253 258 287 279 272 272 279 282 277 281 295 297 308 316 316 316 323 334 344 349 351 356 358 356
185 184 197 203 210 223 229 225 220 218 217 213 209 211 219 227 233 234 227 223 223 222 220 224 234 242 245 250 256 255 252 252 254 257 257 257 257 256 254 250 249 251 243 235 238 246 252 251 253 260 265 269 269 260 238 226 225 221 224 245 262 252 255 281 296 291 278 276 275 265 267 282 291 295 302 306 308 309 319 332 342 341 343 353 356
196 194 198 205 214 224 226 227 226 222 218 214 210 211 217 227 232 226 219 214 210 212 216 223 233 240 243 245 246 242 243 252 258 258 256 254 253 254 252 249 248 248 242 234 235 243 247 247 253 261 266 274 276 261 241 231 227 226 236 253 257 250 260 285 315 311 284 267 259 262 272 277 280 281 282 289 295 301 311 319 331 337 337 346 353
205 202 202 207 216 227 229 222 213 206 206 206 207 211 219 227 227 218 216 219 214 206 212 221 227 229 235 245 247 236 234 249 251 242 244 248 244 239 241 244 242 238 233 230 234 242 247 247 252 261 267 278 288 273 250 240 237 239 248 256 253 250 265 290 320 326 296 264 251 262 271 272 277 278 278 281 278 282 301 310 322 335 340 344 349
221 214 210 211 217 229 230 220 205 191 194 198 204 214 221 227 230 221 215 220 218 210 215 219 218 223 241 258 255 242 240 247 241 236 250 260 243 231 233 233 228 226 225 226 231 239 245 243 245 255 262 266 280 278 260 250 246 247 257 258 251 252 267 287 310 328 317 271 249 251 256 268 280 279 281 286 277 270 289 305 314 324 327 329 335
227 225 217 210 214 222 224 225 216 198 191 192 200 210 214 223 232 225 218 222 224 221 221 218 220 232 250 263 258 249 244 240 237 239 252 257 242 230 226 218 216 220 222 225 231 234 237 238 243 253 256 254 263 274 272 265 255 254 260 258 251 255 269 284 300 322 330 295 252 244 253 270 283 281 282 282 263 256 282 290 296 301 298 307 318
226 230 225 215 220 221 218 220 216 201 193 193 199 204 208 220 234 225 220 224 227 227 225 224 231 240 247 256 263 261 248 238 239 247 250 248 238 227 223 221 222 225 227 229 232 232 234 241 246 249 249 249 256 262 265 267 261 260 261 255 252 259 267 282 296 309 327 316 262 243 250 263 274 279 281 267 248 264 285 281 277 282 289 296 304
235 242 241 232 231 229 218 214 213 209 204 205 210 213 217 227 231 224 220 222 226 230 230 232 238 240 239 249 260 264 255 243 243 249 250 247 240 231 228 231 232 233 234 233 234 235 238 245 249 249 247 248 254 257 257 260 256 253 254 251 252 259 265 276 288 296 313 320 281 249 244 243 252 270 278 273 266 268 274 275 272 272 280 288 293
242 250 250 240 228 214 207 211 213 211 210 213 219 223 225 228 230 228 222 221 228 234 235 237 240 238 234 241 251 258 260 254 249 249 249 248 245 239 235 236 238 240 241 238 238 241 244 247 249 249 249 249 253 256 256 258 256 252 253 254 254 256 261 269 279 290 304 312 298 268 243 238 249 265 276 283 281 270 266 270 272 270 272 275 279
232 230 225 222 215 206 207 211 210 208 212 220 226 229 232 235 237 235 227 226 235 242 243 243 241 235 231 237 249 257 261 262 258 254 250 248 246 244 242 242 243 244 245 244 244 246 249 250 250 250 251 252 253 254 253 254 257 258 257 257 256 256 258 262 271 283 294 301 299 277 244 238 248 262 274 282 282 275 268 266 266 266 266 267 273
203 200 198 201 205 207 211 211 210 212 219 228 232 235 240 243 244 241 234 234 239 243 246 247 240 233 232 241 253 258 257 259 261 257 251 247 246 247 248 249 248 247 247 247 248 249 250 251 252 252 254 254 254 253 253 254 256 258 257 255 255 257 256 259 266 273 281 291 285 258 241 241 252 268 278 280 281 277 269 262 260 260 261 265 271
179 182 191 189 179 186 202 208 212 218 224 229 233 238 243 246 246 244 240 239 241 242 245 245 239 234 238 246 254 256 254 256 259 259 253 248 248 251 253 253 251 249 250 251 252 252 252 252 253 253 254 255 256 255 254 254 256 258 256 253 254 255 254 256 261 264 268 276 271 248 243 248 259 271 278 283 289 287 273 259 254 255 259 264 269
191 184 186 184 174 178 193 202 210 219 223 228 232 235 238 240 242 244 243 242 241 242 243 243 241 242 246 251 254 254 253 253 255 256 254 252 251 252 254 255 254 252 252 253 254 254 255 255 255 255 254 255 259 259 256 255 257 259 257 253 252 253 252 253 257 260 263 266 263 251 246 251 261 269 278 289 296 292 276 257 248 251 257 261 269
197 185 182 185 189 199 207 210 215 221 226 232 236 234 234 238 240 242 243 241 239 240 242 243 245 248 252 254 256 257 258 257 254 250 249 253 253 251 253 256 255 252 251 252 253 255 255 256 257 257 256 256 260 262 259 257 257 258 256 253 250 250 251 252 255 257 260 261 259 253 247 251 259 267 281 294 296 286 270 251 244 249 255 260 273
194 187 196 206 212 217 223 228 229 231 237 240 240 237 235 237 241 241 240 238 238 242 245 246 248 252 255 256 258 259 261 261 258 253 251 254 254 253 255 256 255 254 253 253 255 257 257 258 257 258 258 258 262 264 262 260 260 258 255 253 251 249 249 251 253 254 256 257 258 255 248 249 257 268 283 292 290 276 259 245 242 247 252 261 280
211 206 215 224 227 227 227 226 227 234 243 244 241 238 234 236 241 242 239 238 240 245 249 251 252 255 256 256 258 259 260 262 262 261 259 257 256 255 256 257 256 254 253 253 254 254 257 260 260 261 261 260 263 266 264 262 262 261 256 253 251 249 247 249 252 252 253 255 257 255 249 247 254 265 276 278 270 257 248 243 243 246 252 267 287
265 245 242 240 238 235 230 226 228 237 245 245 242 239 235 237 243 242 238 240 245 251 254 256 257 258 257 256 257 257 258 259 260 261 260 258 255 255 256 256 254 249 248 249 249 249 255 261 263 264 265 264 266 268 267 265 264 263 260 256 251 248 247 249 251 251 252 254 256 256 252 247 248 255 259 259 254 248 243 241 241 244 256 275 294
356 334 305 281 263 250 239 234 236 243 249 248 242 237 236 241 245 243 241 247 254 257 258 258 259 259 258 257 256 255 255 255 256 258 258 257 256 255 254 254 250 246 244 244 245 246 251 257 261 261 262 264 264 265 266 267 266 264 262 258 252 250 251 252 251 250 251 253 256 258 255 249 245 245 247 250 253 249 240 237 241 251 268 284 293
6 9 4 340 308 286 268 258 256 256 258 258 249 240 241 244 244 244 251 258 262 263 263 262 261 260 260 259 258 255 254 253 254 257 258 259 260 259 256 253 250 245 242 241 244 246 248 253 257 258 258 260 260 259 261 265 268 267 264 259 255 255 256 253 250 249 249 252 257 260 259 253 246 244 245 249 252 246 238 240 249 264 278 285 286
349 352 359 1 347 328 314 303 296 288 284 280 267 252 249 247 247 254 263 266 266 267 266 264 263 264 264 263 261 258 254 253 254 257 259 260 262 261 260 258 253 246 241 241 245 248 247 249 253 256 257 260 261 260 259 261 266 268 267 265 263 262 261 254 249 249 251 254 259 261 261 256 250 247 247 249 248 244 241 246 256 270 279 281 282
340 341 344 347 342 333 332 333 331 326 321 313 295 273 261 255 256 264 269 269 269 272 271 268 268 269 270 271 269 264 260 256 255 258 259 260 261 262 262 262 257 248 243 242 246 248 246 246 250 254 258 262 265 265 264 263 264 264 266 268 268 268 265 257 251 251 255 257 260 263 262 258 253 250 250 250 249 246 246 252 261 270 277 279 280
345 347 343 337 334 337 342 344 344 341 337 334 326 303 280 272 274 275 272 271 272 274 273 272 273 274 276 278 277 273 268 262 258 258 258 260 262 262 261 261 257 249 242 241 243 245 246 247 248 251 257 262 266 269 269 268 264 262 264 268 269 269 268 261 254 254 257 258 260 262 262 259 255 253 252 250 249 249 251 256 262 269 275 279 281
355 352 346 338 334 338 341 338 336 336 335 333 331 321 307 301 297 286 274 271 271 268 269 271 273 277 281 282 280 279 276 269 262 259 259 261 264 264 263 262 257 248 242 240 241 244 248 249 249 251 255 258 263 269 271 270 266 262 263 266 266 268 268 263 257 256 256 256 257 258 258 256 253 251 250 249 250 252 254 257 261 266 272 278 282
2 3 2 355 346 339 336 330 326 328 330 329 327 324 319 318 314 299 280 271 269 267 270 274 279 283 287 286 284 283 281 274 265 261 263 267 271 270 266 262 257 250 243 240 242 246 249 250 250 252 254 255 257 263 268 270 268 265 264 264 263 263 265 263 259 256 255 255 254 254 254 254 251 249 249 250 252 253 254 256 261 266 272 277 281
3 4 5 1 352 343 338 331 326 327 329 326 323 322 321 320 319 309 293 279 272 274 279 283 287 289 290 291 290 287 283 277 272 273 277 280 282 280 272 267 264 257 249 244 246 250 253 255 255 254 253 252 253 260 267 270 270 268 265 260 256 256 262 264 263 263 261 257 252 249 249 249 247 246 246 248 250 251 254 258 262 268 272 276 279
1 1 360 355 348 342 337 333 329 330 331 327 321 320 322 323 320 314 304 290 282 286 289 288 288 288 289 293 295 293 292 291 293 301 305 304 305 302 291 284 282 273 262 258 260 262 265 267 264 259 254 247 246 259 271 273 271 270 267 258 252 253 258 262 265 267 265 259 251 246 245 244 243 243 244 247 250 253 256 260 263 267 271 274 275
3 2 357 352 345 338 332 328 328 329 331 329 323 318 319 322 321 321 319 311 305 307 304 295 289 289 293 303 314 326 337 341 340 339 335 331 331 328 315 304 301 294 285 280 279 279 281 279 272 266 262 256 255 263 272 272 269 269 266 257 252 253 256 259 261 260 255 251 247 243 242 242 240 240 243 246 250 253 255 259 263 266 269 270 269
11 6 359 351 346 339 330 325 324 325 328 329 327 323 321 321 321 322 320 315 309 307 304 300 303 327 25 36 31 26 18 9 1 354 346 339 334 329 324 318 311 307 306 305 303 302 302 296 283 272 266 264 262 263 265 265 265 267 266 258 252 252 257 259 257 251 244 242 240 238 240 242 241 240 242 246 249 252 254 257 261 265 266 265 263